User: anonymous   Login
Location: Quebec
(46.8000°N, 71.2500°W)
Time: 07:46:51
(UTC-04:00)
Language:

CZ-4B R/B - Orbit

View from above orbital plane
View from above orbital plane
View from above satellite
View from above satellite

Ground track
Ground track

The orbit data is extracted from the following two-line orbital elements,

1 29093U 06015B   16149.23538642  .00003176  00000-0  84800-4 0  9990
2 29093  97.4831 246.2305 0067993 258.6277 100.7323 15.36581238558354
Epoch (UTC): 28 May 2016 05:38:57
Eccentricity: 0.0067993
inclination: 97.4831°
perigee height: 410 km
apogee height: 503 km
right ascension of ascending node: 246.2305°
argument of perigee: 258.6277°
revolutions per day: 15.36581238
mean anomaly at epoch: 100.7323°
orbit number at epoch: 55835

The dashed part of the orbit path shows where the satellite is in the earth's shadow,  

DLR